Home > Weather > Kyoto > Past weeks

Flag for Japan Weather for the Past 2 Weeks in Kyoto, Japan

Now
60 °F

Rain showers. Overcast.


Feels Like: 60 °F
Forecast: 45 / 64 °F
Wind: 15 mph from Southwest

Location: Osaka

Current Time: Feb 14, 2016 at 4:25:49 AM

Latest Report: Feb 14, 2016 at 3:00 AM


Visibility: 4 mi

Pressure: 29.68 "Hg

Humidity: 89%

Dew point: 57 °F

Location of KyotoLocation

Historic Weather in Kyoto — Graph

°F

Kyoto Temperature Yesterday

Maximum temperature yesterday: 64 °F (at 1:00 PM)
Minimum temperature yesterday: 52 °F (at 6:00 AM)
Average temperature yesterday: 56 °F

High & Low Weather Summary for the Past Weeks

 TemperatureHumidityPressure
High66 °F (Feb 14, 2:00 AM)98% (Feb 13, 11:00 PM)30.47 "Hg (Feb 13, 11:00 PM)
Low31 °F (Feb 8, 7:00 AM)25% (Feb 8, 2:00 PM)29.65 "Hg (Feb 14, 2:00 AM)
Average45 °F61%30.16 "Hg
* Reported Jan 30 3:00 AM — Feb 14 3:00 AM, Kyoto, Weather by CustomWeather, © 2016

Note: Actual official high and low records may vary slightly from our data, if they occured in-between our weather recording intervals... More about our weather records

Advertising

Kyoto Weather History for the Previous 24 Hours

 ConditionsComfort  
Time TempWeatherWind HumidityBarometerVisibility
3:00 AM
Sun, Feb 14
60 °FRain showers. Overcast.15 mph89%29.68 "Hg4 mi
2:00 AM66 °FMild.6 mph84%29.65 "HgN/A
1:00 AM65 °FMild.2 mph96%29.70 "HgN/A
12:00 AM56 °FCool.3 mph98%29.72 "HgN/A
11:00 PM
Sat, Feb 13
56 °FCool.3 mph98%29.76 "HgN/A
9:00 PM55 °FSprinkles. Low clouds.7 mph97%29.85 "Hg2 mi
8:00 PM55 °FCool.6 mph96%29.89 "HgN/A
7:00 PM56 °FCool.5 mph95%29.92 "HgN/A
6:00 PM57 °FRain showers. Overcast.5 mph95%29.94 "Hg3 mi
5:00 PM57 °FCool.7 mph93%29.97 "HgN/A
4:00 PM58 °FCool.6 mph90%29.98 "HgN/A
3:00 PM61 °FSprinkles. Overcast.5 mph75%29.99 "Hg5 mi
2:00 PM63 °FMild.5 mph61%30.00 "HgN/A
1:00 PM64 °FMild.3 mph60%30.02 "HgN/A
12:00 PM62 °FOvercast.6 mph62%30.07 "Hg12 mi
9:00 AM54 °FOvercast.6 mph76%30.14 "Hg19 mi
6:00 AM52 °FOvercast.7 mph80%30.17 "Hg12 mi
5:00 AM52 °FCool.7 mph79%30.17 "HgN/A
4:00 AM52 °FCool.7 mph79%30.19 "HgN/A
Weather by CustomWeather, © 2016

See weather overviewHow to use our weather pages